STARLINK-35928

Last updated on Fri Dec 19 2025 00:02:05 GMT+0000 (Coordinated Universal Time)

1 66528U 25265N 25352.44409401 .00068849 00000+0 11685-2 0 9997 2 66528 42.9983 20.6041 0001633 271.0280 89.0393 15.50593981 4642
UTC large
Height (km)
Speed (km/s)
/
Latitude / Longitude
Inclination (degrees)
Orbital Period (minutes)
Azimuth
Elevation
Range (km)
Doppler Factor

Next 0 passes for location: London (51.5072 / 0.1276)

Sorry there are no passes over London.